owner,sensor,date,latitude,longitude,vertical_datum,direction_of_sea_water_velocity,sea_water_speed,upward_sea_water_velocity,qcFlag 
TABS,ioos:station:wmo:42051:1,2005-07-01T00:00:00Z,29.6350,-93.6417,2.0,69.41690417,7.423920797,-99999.0,'11133222,11111222,99999999' 
TABS,ioos:station:wmo:42051:1,2005-07-01T00:30:00Z,29.6350,-93.6417,2.0,78.10191295,9.361116386,-99999.0,'11133222,11111222,99999999' 
TABS,ioos:station:wmo:42051:1,2005-07-01T01:00:00Z,29.6350,-93.6417,2.0,77.45391434,7.181483134,-99999.0,'11133222,11111222,99999999' 
TABS,ioos:station:wmo:42051:1,2005-07-01T01:30:00Z,29.6350,-93.6417,2.0,75.98394259,13.79057649,-99999.0,'11111222,11111222,99999999' 
TABS,ioos:station:wmo:42051:1,2005-07-01T02:00:00Z,29.6350,-93.6417,2.0,73.22826362,13.61934286,-99999.0,'11111222,11111222,99999999' 
TABS,ioos:station:wmo:42051:1,2005-07-01T02:30:00Z,29.6350,-93.6417,2.0,74.62378471,10.78608363,-99999.0,'11111222,11111222,99999999' 
TABS,ioos:station:wmo:42051:1,2005-07-01T03:00:00Z,29.6350,-93.6417,2.0,74.63469078,11.39739005,-99999.0,'11111222,11111222,99999999' 
TABS,ioos:station:wmo:42051:1,2005-07-01T03:30:00Z,29.6350,-93.6417,2.0,67.71371708,11.62865856,-99999.0,'11111222,11111222,99999999' 
TABS,ioos:station:wmo:42051:1,2005-07-01T04:00:00Z,29.6350,-93.6417,2.0,80.83956066,9.673370664,-99999.0,'11133222,11111222,99999999' 
TABS,ioos:station:wmo:42051:1,2005-07-01T04:30:00Z,29.6350,-93.6417,2.0,77.52444833,10.50811591,-99999.0,'11111222,11111222,99999999' 
TABS,ioos:station:wmo:42051:1,2005-07-01T05:00:00Z,29.6350,-93.6417,2.0,79.83089545,11.32795215,-99999.0,'11111222,11111222,99999999' 
TABS,ioos:station:wmo:42051:1,2005-07-01T05:30:00Z,29.6350,-93.6417,2.0,97.66114378,9.676373288,-99999.0,'11133222,11111222,99999999' 
TABS,ioos:station:wmo:42051:1,2005-07-01T06:00:00Z,29.6350,-93.6417,2.0,111.9754736,9.165964216,-99999.0,'11133222,11111222,99999999' 
TABS,ioos:station:wmo:42051:1,2005-07-01T06:30:00Z,29.6350,-93.6417,2.0,123.7866738,8.217895108,-99999.0,'11133222,11111222,99999999' 
TABS,ioos:station:wmo:42051:1,2005-07-01T07:00:00Z,29.6350,-93.6417,2.0,127.8055439,8.695159573,-99999.0,'11133222,11111222,99999999' 
TABS,ioos:station:wmo:42051:1,2005-07-01T07:30:00Z,29.6350,-93.6417,2.0,99.10911222,9.601083272,-99999.0,'11133222,11111222,99999999' 
TABS,ioos:station:wmo:42051:1,2005-07-01T08:00:00Z,29.6350,-93.6417,2.0,107.5036317,10.50647419,-99999.0,'11111222,11111222,99999999' 
TABS,ioos:station:wmo:42051:1,2005-07-01T08:30:00Z,29.6350,-93.6417,2.0,103.3758073,11.15252886,-99999.0,'11111222,11111222,99999999' 
TABS,ioos:station:wmo:42051:1,2005-07-01T09:00:00Z,29.6350,-93.6417,2.0,111.9637837,13.10085875,-99999.0,'11111222,11111222,99999999' 
TABS,ioos:station:wmo:42051:1,2005-07-01T09:30:00Z,29.6350,-93.6417,2.0,108.4479068,13.93615801,-99999.0,'11111222,11111222,99999999' 
TABS,ioos:station:wmo:42051:1,2005-07-01T10:00:00Z,29.6350,-93.6417,2.0,96.43103578,13.92764158,-99999.0,'11111222,11111222,99999999' 
TABS,ioos:station:wmo:42051:1,2005-07-01T10:30:00Z,29.6350,-93.6417,2.0,98.6107208,27.98544264,-99999.0,'11111222,11111222,99999999' 
TABS,ioos:station:wmo:42051:1,2005-07-01T11:00:00Z,29.6350,-93.6417,2.0,99.57395335,26.99600896,-99999.0,'11111222,11111222,99999999' 
TABS,ioos:station:wmo:42051:1,2005-07-01T11:30:00Z,29.6350,-93.6417,2.0,98.44034554,23.50457402,-99999.0,'11111222,11111222,99999999' 
TABS,ioos:station:wmo:42051:1,2005-07-01T12:00:00Z,29.6350,-93.6417,2.0,93.3320497,18.58141276,-99999.0,'11111222,11111222,99999999' 
TABS,ioos:station:wmo:42051:1,2005-07-01T12:30:00Z,29.6350,-93.6417,2.0,89.65484968,23.24042168,-99999.0,'11111222,11111222,99999999' 
TABS,ioos:station:wmo:42051:1,2005-07-01T13:00:00Z,29.6350,-93.6417,2.0,92.49350845,18.84784603,-99999.0,'11111222,11111222,99999999' 
TABS,ioos:station:wmo:42051:1,2005-07-01T13:30:00Z,29.6350,-93.6417,2.0,95.0893044,22.20755052,-99999.0,'11111222,11111222,99999999' 
TABS,ioos:station:wmo:42051:1,2005-07-01T14:00:00Z,29.6350,-93.6417,2.0,88.00840549,20.14216721,-99999.0,'11111222,11111222,99999999' 
TABS,ioos:station:wmo:42051:1,2005-07-01T14:30:00Z,29.6350,-93.6417,2.0,84.77311703,14.37979485,-99999.0,'11111222,11111222,99999999' 
TABS,ioos:station:wmo:42051:1,2005-07-01T15:00:00Z,29.6350,-93.6417,2.0,85.83960604,13.64595911,-99999.0,'11111222,11111222,99999999' 
TABS,ioos:station:wmo:42051:1,2005-07-01T15:30:00Z,29.6350,-93.6417,2.0,86.38835808,16.1921586,-99999.0,'11111222,11111222,99999999' 
TABS,ioos:station:wmo:42051:1,2005-07-01T16:00:00Z,29.6350,-93.6417,2.0,78.09172779,12.01865217,-99999.0,'11111222,11111222,99999999' 
TABS,ioos:station:wmo:42051:1,2005-07-01T16:30:00Z,29.6350,-93.6417,2.0,87.39261309,10.77115128,-99999.0,'11111222,11111222,99999999' 
TABS,ioos:station:wmo:42051:1,2005-07-01T17:00:00Z,29.6350,-93.6417,2.0,93.55210684,10.32984511,-99999.0,'11111222,11111222,99999999' 
TABS,ioos:station:wmo:42051:1,2005-07-01T17:30:00Z,29.6350,-93.6417,2.0,91.47043584,8.962951523,-99999.0,'11133222,11111222,99999999' 
TABS,ioos:station:wmo:42051:1,2005-07-01T18:00:00Z,29.6350,-93.6417,2.0,104.7258783,8.261361873,-99999.0,'11133222,11111222,99999999' 
TABS,ioos:station:wmo:42051:1,2005-07-01T18:30:00Z,29.6350,-93.6417,2.0,96.01470547,5.248895122,-99999.0,'11133222,11111222,99999999' 
TABS,ioos:station:wmo:42051:1,2005-07-01T19:00:00Z,29.6350,-93.6417,2.0,111.7458395,5.749130369,-99999.0,'11133222,11111222,99999999' 
TABS,ioos:station:wmo:42051:1,2005-07-01T19:30:00Z,29.6350,-93.6417,2.0,97.93273976,7.390723916,-99999.0,'11133222,11111222,99999999' 
TABS,ioos:station:wmo:42051:1,2005-07-01T20:00:00Z,29.6350,-93.6417,2.0,101.4429967,10.13138687,-99999.0,'11111222,11111222,99999999' 
TABS,ioos:station:wmo:42051:1,2005-07-01T20:30:00Z,29.6350,-93.6417,2.0,102.1972101,14.05732905,-99999.0,'11111222,11111222,99999999' 
TABS,ioos:station:wmo:42051:1,2005-07-01T21:00:00Z,29.6350,-93.6417,2.0,93.23789971,24.07843849,-99999.0,'11111222,11111222,99999999' 
TABS,ioos:station:wmo:42051:1,2005-07-01T21:30:00Z,29.6350,-93.6417,2.0,87.51958077,27.26554602,-99999.0,'11111222,11111222,99999999' 
TABS,ioos:station:wmo:42051:1,2005-07-01T22:00:00Z,29.6350,-93.6417,2.0,87.11704329,26.443468,-99999.0,'11111222,11111222,99999999' 
TABS,ioos:station:wmo:42051:1,2005-07-01T22:30:00Z,29.6350,-93.6417,2.0,82.95661424,26.99370667,-99999.0,'11111222,11111222,99999999' 
TABS,ioos:station:wmo:42051:1,2005-07-01T23:00:00Z,29.6350,-93.6417,2.0,81.47437642,16.59336313,-99999.0,'11111222,11111222,99999999' 
TABS,ioos:station:wmo:42051:1,2005-07-01T23:30:00Z,29.6350,-93.6417,2.0,73.62054545,12.8724279,-99999.0,'11111222,11111222,99999999' 
TABS,ioos:station:wmo:42051:1,2005-07-02T00:00:00Z,29.6350,-93.6417,2.0,71.61641913,21.18094427,-99999.0,'11111222,11111222,99999999' 
TABS,ioos:station:wmo:42051:1,2005-07-02T00:30:00Z,29.6350,-93.6417,2.0,71.74247962,32.68545854,-99999.0,'11111222,11111222,99999999' 
TABS,ioos:station:wmo:42051:1,2005-07-02T01:00:00Z,29.6350,-93.6417,2.0,66.45758457,38.50499188,-99999.0,'11111222,11111222,99999999' 
TABS,ioos:station:wmo:42051:1,2005-07-02T01:30:00Z,29.6350,-93.6417,2.0,67.67913927,37.88897729,-99999.0,'11111222,11111222,99999999' 
TABS,ioos:station:wmo:42051:1,2005-07-02T02:00:00Z,29.6350,-93.6417,2.0,65.378987,34.80430433,-99999.0,'11111222,11111222,99999999' 
TABS,ioos:station:wmo:42051:1,2005-07-02T02:30:00Z,29.6350,-93.6417,2.0,63.03411501,38.34950456,-99999.0,'11111222,11111222,99999999' 
TABS,ioos:station:wmo:42051:1,2005-07-02T03:00:00Z,29.6350,-93.6417,2.0,65.50553031,37.50545827,-99999.0,'11111222,11111222,99999999' 
TABS,ioos:station:wmo:42051:1,2005-07-02T03:30:00Z,29.6350,-93.6417,2.0,63.71311361,42.38293171,-99999.0,'11111222,11111222,99999999' 
TABS,ioos:station:wmo:42051:1,2005-07-02T04:00:00Z,29.6350,-93.6417,2.0,68.13014118,43.48987928,-99999.0,'11111222,11111222,99999999' 
TABS,ioos:station:wmo:42051:1,2005-07-02T04:30:00Z,29.6350,-93.6417,2.0,71.53819913,40.42023751,-99999.0,'11111222,11111222,99999999' 
TABS,ioos:station:wmo:42051:1,2005-07-02T05:00:00Z,29.6350,-93.6417,2.0,69.82473467,37.69276323,-99999.0,'11111222,11111222,99999999' 
TABS,ioos:station:wmo:42051:1,2005-07-02T05:30:00Z,29.6350,-93.6417,2.0,75.36045414,47.67787118,-99999.0,'11111222,11111222,99999999' 
TABS,ioos:station:wmo:42051:1,2005-07-02T06:00:00Z,29.6350,-93.6417,2.0,85.12820297,46.62845912,-99999.0,'11111222,11111222,99999999' 
TABS,ioos:station:wmo:42051:1,2005-07-02T06:30:00Z,29.6350,-93.6417,2.0,88.41544505,45.92756253,-99999.0,'11111222,11111222,99999999' 
TABS,ioos:station:wmo:42051:1,2005-07-02T07:00:00Z,29.6350,-93.6417,2.0,91.15417376,47.65966953,-99999.0,'11111222,11111222,99999999' 
TABS,ioos:station:wmo:42051:1,2005-07-02T07:30:00Z,29.6350,-93.6417,2.0,95.34649431,44.00143293,-99999.0,'11111222,11111222,99999999' 
TABS,ioos:station:wmo:42051:1,2005-07-02T08:00:00Z,29.6350,-93.6417,2.0,97.5845299,45.00372985,-99999.0,'11111222,11111222,99999999' 
TABS,ioos:station:wmo:42051:1,2005-07-02T08:30:00Z,29.6350,-93.6417,2.0,98.44142627,40.59984236,-99999.0,'11111222,11111222,99999999' 
TABS,ioos:station:wmo:42051:1,2005-07-02T09:00:00Z,29.6350,-93.6417,2.0,101.0502557,41.11224757,-99999.0,'11111222,11111222,99999999' 
TABS,ioos:station:wmo:42051:1,2005-07-02T09:30:00Z,29.6350,-93.6417,2.0,103.1478993,41.45674613,-99999.0,'11111222,11111222,99999999' 
TABS,ioos:station:wmo:42051:1,2005-07-02T10:00:00Z,29.6350,-93.6417,2.0,102.9713185,38.75903637,-99999.0,'11111222,11111222,99999999' 
TABS,ioos:station:wmo:42051:1,2005-07-02T10:30:00Z,29.6350,-93.6417,2.0,98.88278927,41.12322215,-99999.0,'11111222,11111222,99999999' 
TABS,ioos:station:wmo:42051:1,2005-07-02T11:00:00Z,29.6350,-93.6417,2.0,98.7554228,42.24224663,-99999.0,'11111222,11111222,99999999' 
TABS,ioos:station:wmo:42051:1,2005-07-02T12:00:00Z,29.6350,-93.6417,2.0,105.3864163,35.20169314,-99999.0,'11111222,11111222,99999999' 
TABS,ioos:station:wmo:42051:1,2005-07-02T12:30:00Z,29.6350,-93.6417,2.0,109.2345679,35.12051395,-99999.0,'11111222,11111222,99999999' 
TABS,ioos:station:wmo:42051:1,2005-07-02T13:00:00Z,29.6350,-93.6417,2.0,112.6910531,32.17002487,-99999.0,'11111222,11111222,99999999' 
TABS,ioos:station:wmo:42051:1,2005-07-02T13:30:00Z,29.6350,-93.6417,2.0,109.0829825,33.82904817,-99999.0,'11111222,11111222,99999999' 
TABS,ioos:station:wmo:42051:1,2005-07-02T14:00:00Z,29.6350,-93.6417,2.0,108.0220643,28.08807932,-99999.0,'11111222,11111222,99999999' 
TABS,ioos:station:wmo:42051:1,2005-07-02T14:30:00Z,29.6350,-93.6417,2.0,102.3259434,22.67262887,-99999.0,'11111222,11111222,99999999' 
TABS,ioos:station:wmo:42051:1,2005-07-02T15:00:00Z,29.6350,-93.6417,2.0,103.738276,18.19041781,-99999.0,'11111222,11111222,99999999' 
TABS,ioos:station:wmo:42051:1,2005-07-02T15:30:00Z,29.6350,-93.6417,2.0,112.6244828,18.87230776,-99999.0,'11111222,11111222,99999999' 
TABS,ioos:station:wmo:42051:1,2005-07-02T16:00:00Z,29.6350,-93.6417,2.0,112.4007372,18.1062862,-99999.0,'11111222,11111222,99999999' 
TABS,ioos:station:wmo:42051:1,2005-07-02T16:30:00Z,29.6350,-93.6417,2.0,122.4360302,21.29171905,-99999.0,'11111222,11111222,99999999' 
TABS,ioos:station:wmo:42051:1,2005-07-02T17:00:00Z,29.6350,-93.6417,2.0,127.271079,14.56435718,-99999.0,'11111222,11111222,99999999' 
TABS,ioos:station:wmo:42051:1,2005-07-02T17:30:00Z,29.6350,-93.6417,2.0,117.9976084,12.16353978,-99999.0,'11111222,11111222,99999999' 
TABS,ioos:station:wmo:42051:1,2005-07-02T18:00:00Z,29.6350,-93.6417,2.0,123.3211378,12.9247824,-99999.0,'11111222,11111222,99999999' 
TABS,ioos:station:wmo:42051:1,2005-07-02T18:30:00Z,29.6350,-93.6417,2.0,127.2181089,6.580121579,-99999.0,'11133222,11111222,99999999' 
TABS,ioos:station:wmo:42051:1,2005-07-02T19:00:00Z,29.6350,-93.6417,2.0,119.6005511,5.911514188,-99999.0,'11133222,11111222,99999999' 
TABS,ioos:station:wmo:42051:1,2005-07-02T19:30:00Z,29.6350,-93.6417,2.0,110.0077626,9.907986677,-99999.0,'11133222,11111222,99999999' 
TABS,ioos:station:wmo:42051:1,2005-07-02T20:00:00Z,29.6350,-93.6417,2.0,111.2878104,9.530267572,-99999.0,'11133222,11111222,99999999' 
TABS,ioos:station:wmo:42051:1,2005-07-02T20:30:00Z,29.6350,-93.6417,2.0,101.4616535,10.36673526,-99999.0,'11111222,11111222,99999999' 
TABS,ioos:station:wmo:42051:1,2005-07-02T21:00:00Z,29.6350,-93.6417,2.0,110.2678706,11.17171876,-99999.0,'11111222,11111222,99999999' 
TABS,ioos:station:wmo:42051:1,2005-07-02T21:30:00Z,29.6350,-93.6417,2.0,96.86947334,13.62783182,-99999.0,'11111222,11111222,99999999' 
TABS,ioos:station:wmo:42051:1,2005-07-02T22:00:00Z,29.6350,-93.6417,2.0,94.92539703,17.35408309,-99999.0,'11111222,11111222,99999999' 
TABS,ioos:station:wmo:42051:1,2005-07-02T22:30:00Z,29.6350,-93.6417,2.0,93.09103711,15.39239423,-99999.0,'11111222,11111222,99999999' 
TABS,ioos:station:wmo:42051:1,2005-07-02T23:00:00Z,29.6350,-93.6417,2.0,87.18609474,17.1106312,-99999.0,'11111222,11111222,99999999' 
TABS,ioos:station:wmo:42051:1,2005-07-02T23:30:00Z,29.6350,-93.6417,2.0,85.12364815,14.3519476,-99999.0,'11111222,11111222,99999999' 
TABS,ioos:station:wmo:42051:1,2005-07-03T00:00:00Z,29.6350,-93.6417,2.0,86.30707983,23.90964659,-99999.0,'11111222,11111222,99999999' 
TABS,ioos:station:wmo:42051:1,2005-07-03T00:30:00Z,29.6350,-93.6417,2.0,80.73421046,18.6939188,-99999.0,'11111222,11111222,99999999' 
TABS,ioos:station:wmo:42051:1,2005-07-03T01:00:00Z,29.6350,-93.6417,2.0,73.24396875,18.34908717,-99999.0,'11111222,11111222,99999999' 
TABS,ioos:station:wmo:42051:1,2005-07-03T01:30:00Z,29.6350,-93.6417,2.0,74.9595064,18.26573842,-99999.0,'11111222,11111222,99999999' 
TABS,ioos:station:wmo:42051:1,2005-07-03T02:00:00Z,29.6350,-93.6417,2.0,72.47447261,30.88353121,-99999.0,'11111222,11111222,99999999' 
TABS,ioos:station:wmo:42051:1,2005-07-03T02:30:00Z,29.6350,-93.6417,2.0,73.84658272,31.77445515,-99999.0,'11111222,11111222,99999999' 
TABS,ioos:station:wmo:42051:1,2005-07-03T03:00:00Z,29.6350,-93.6417,2.0,74.597031,26.84420422,-99999.0,'11111222,11111222,99999999' 
TABS,ioos:station:wmo:42051:1,2005-07-03T03:30:00Z,29.6350,-93.6417,2.0,70.66245722,27.3001685,-99999.0,'11111222,11111222,99999999' 
TABS,ioos:station:wmo:42051:1,2005-07-03T04:00:00Z,29.6350,-93.6417,2.0,59.62172016,21.98898133,-99999.0,'11111222,11111222,99999999' 
TABS,ioos:station:wmo:42051:1,2005-07-03T04:30:00Z,29.6350,-93.6417,2.0,44.51816411,14.29113361,-99999.0,'11111222,11111222,99999999' 
TABS,ioos:station:wmo:42051:1,2005-07-03T05:00:00Z,29.6350,-93.6417,2.0,40.95331757,14.12786254,-99999.0,'11111222,11111222,99999999' 
TABS,ioos:station:wmo:42051:1,2005-07-03T05:30:00Z,29.6350,-93.6417,2.0,41.81309994,15.64418422,-99999.0,'11111222,11111222,99999999' 
TABS,ioos:station:wmo:42051:1,2005-07-03T06:00:00Z,29.6350,-93.6417,2.0,42.71235718,11.3368867,-99999.0,'11111222,11111222,99999999' 
TABS,ioos:station:wmo:42051:1,2005-07-03T06:30:00Z,29.6350,-93.6417,2.0,56.24441059,12.11188672,-99999.0,'11111222,11111222,99999999' 
TABS,ioos:station:wmo:42051:1,2005-07-03T07:00:00Z,29.6350,-93.6417,2.0,53.85241175,10.15480674,-99999.0,'11111222,11111222,99999999' 
TABS,ioos:station:wmo:42051:1,2005-07-03T07:30:00Z,29.6350,-93.6417,2.0,47.19242542,7.578660832,-99999.0,'11133222,11111222,99999999' 
TABS,ioos:station:wmo:42051:1,2005-07-03T08:00:00Z,29.6350,-93.6417,2.0,51.78667472,8.018204288,-99999.0,'11133222,11111222,99999999' 
TABS,ioos:station:wmo:42051:1,2005-07-03T08:30:00Z,29.6350,-93.6417,2.0,47.93577181,9.940824915,-99999.0,'11133222,11111222,99999999' 
TABS,ioos:station:wmo:42051:1,2005-07-03T09:00:00Z,29.6350,-93.6417,2.0,78.91982669,4.891175728,-99999.0,'11133222,11111222,99999999' 
TABS,ioos:station:wmo:42051:1,2005-07-03T09:30:00Z,29.6350,-93.6417,2.0,62.3426416,6.333695604,-99999.0,'11133222,11111222,99999999' 
TABS,ioos:station:wmo:42051:1,2005-07-03T10:00:00Z,29.6350,-93.6417,2.0,64.42765795,7.228056447,-99999.0,'11133222,11111222,99999999' 
TABS,ioos:station:wmo:42051:1,2005-07-03T10:30:00Z,29.6350,-93.6417,2.0,78.7006788,10.61576658,-99999.0,'11111222,11111222,99999999' 
TABS,ioos:station:wmo:42051:1,2005-07-03T11:00:00Z,29.6350,-93.6417,2.0,72.5751562,21.7060844,-99999.0,'11111222,11111222,99999999' 
TABS,ioos:station:wmo:42051:1,2005-07-03T11:30:00Z,29.6350,-93.6417,2.0,77.58445394,13.72087825,-99999.0,'11111222,11111222,99999999' 
TABS,ioos:station:wmo:42051:1,2005-07-03T12:00:00Z,29.6350,-93.6417,2.0,69.70588847,15.1078291,-99999.0,'11111222,11111222,99999999' 
TABS,ioos:station:wmo:42051:1,2005-07-03T12:30:00Z,29.6350,-93.6417,2.0,74.10785302,11.83224408,-99999.0,'11111222,11111222,99999999' 
TABS,ioos:station:wmo:42051:1,2005-07-03T13:00:00Z,29.6350,-93.6417,2.0,75.07610198,9.862682191,-99999.0,'11133222,11111222,99999999' 
TABS,ioos:station:wmo:42051:1,2005-07-03T13:30:00Z,29.6350,-93.6417,2.0,80.29891092,13.41178586,-99999.0,'11111222,11111222,99999999' 
TABS,ioos:station:wmo:42051:1,2005-07-03T14:00:00Z,29.6350,-93.6417,2.0,84.71276679,22.35511575,-99999.0,'11111222,11111222,99999999' 
TABS,ioos:station:wmo:42051:1,2005-07-03T14:30:00Z,29.6350,-93.6417,2.0,103.405421,20.48822589,-99999.0,'11111222,11111222,99999999' 
TABS,ioos:station:wmo:42051:1,2005-07-03T15:00:00Z,29.6350,-93.6417,2.0,95.8523653,12.06287279,-99999.0,'11111222,11111222,99999999' 
TABS,ioos:station:wmo:42051:1,2005-07-03T15:30:00Z,29.6350,-93.6417,2.0,88.05449994,12.07696154,-99999.0,'11111222,11111222,99999999' 
TABS,ioos:station:wmo:42051:1,2005-07-03T16:00:00Z,29.6350,-93.6417,2.0,84.50862541,11.70371309,-99999.0,'11111222,11111222,99999999' 
TABS,ioos:station:wmo:42051:1,2005-07-03T16:30:00Z,29.6350,-93.6417,2.0,79.39364473,13.25648898,-99999.0,'11111222,11111222,99999999' 
TABS,ioos:station:wmo:42051:1,2005-07-03T17:00:00Z,29.6350,-93.6417,2.0,86.58640971,14.27532837,-99999.0,'11111222,11111222,99999999' 
TABS,ioos:station:wmo:42051:1,2005-07-03T17:30:00Z,29.6350,-93.6417,2.0,98.94822105,14.65840373,-99999.0,'11111222,11111222,99999999' 
TABS,ioos:station:wmo:42051:1,2005-07-03T18:00:00Z,29.6350,-93.6417,2.0,91.98287366,12.42744141,-99999.0,'11111222,11111222,99999999' 
TABS,ioos:station:wmo:42051:1,2005-07-03T18:30:00Z,29.6350,-93.6417,2.0,95.04423922,9.326119236,-99999.0,'11133222,11111222,99999999' 
TABS,ioos:station:wmo:42051:1,2005-07-03T19:00:00Z,29.6350,-93.6417,2.0,95.12017136,11.8773945,-99999.0,'11111222,11111222,99999999' 
TABS,ioos:station:wmo:42051:1,2005-07-03T19:30:00Z,29.6350,-93.6417,2.0,100.3573346,10.73491966,-99999.0,'11111222,11111222,99999999' 
TABS,ioos:station:wmo:42051:1,2005-07-03T20:00:00Z,29.6350,-93.6417,2.0,109.7222316,12.9496332,-99999.0,'11111222,11111222,99999999' 
TABS,ioos:station:wmo:42051:1,2005-07-03T20:30:00Z,29.6350,-93.6417,2.0,102.7615884,7.741227293,-99999.0,'11133222,11111222,99999999' 
TABS,ioos:station:wmo:42051:1,2005-07-03T21:00:00Z,29.6350,-93.6417,2.0,77.68543494,18.56720765,-99999.0,'11111222,11111222,99999999' 
TABS,ioos:station:wmo:42051:1,2005-07-03T21:30:00Z,29.6350,-93.6417,2.0,85.62837267,12.98778657,-99999.0,'11111222,11111222,99999999' 
TABS,ioos:station:wmo:42051:1,2005-07-03T22:00:00Z,29.6350,-93.6417,2.0,78.10589059,16.15688708,-99999.0,'11111222,11111222,99999999' 
TABS,ioos:station:wmo:42051:1,2005-07-03T22:30:00Z,29.6350,-93.6417,2.0,81.03298801,10.65016432,-99999.0,'11111222,11111222,99999999' 
TABS,ioos:station:wmo:42051:1,2005-07-03T23:00:00Z,29.6350,-93.6417,2.0,76.26510472,9.223757369,-99999.0,'11133222,11111222,99999999' 
TABS,ioos:station:wmo:42051:1,2005-07-03T23:30:00Z,29.6350,-93.6417,2.0,68.53239876,7.650777738,-99999.0,'11133222,11111222,99999999' 
TABS,ioos:station:wmo:42051:1,2005-07-04T00:00:00Z,29.6350,-93.6417,2.0,66.34205832,13.7561041,-99999.0,'11111222,11111222,99999999' 
TABS,ioos:station:wmo:42051:1,2005-07-04T00:30:00Z,29.6350,-93.6417,2.0,67.2256983,13.12312463,-99999.0,'11111222,11111222,99999999' 
TABS,ioos:station:wmo:42051:1,2005-07-04T01:00:00Z,29.6350,-93.6417,2.0,64.03635467,12.35719224,-99999.0,'11111222,11111222,99999999' 
TABS,ioos:station:wmo:42051:1,2005-07-04T01:30:00Z,29.6350,-93.6417,2.0,61.50250792,14.98570652,-99999.0,'11111222,11111222,99999999' 
TABS,ioos:station:wmo:42051:1,2005-07-04T02:00:00Z,29.6350,-93.6417,2.0,57.53368307,18.31205614,-99999.0,'11111222,11111222,99999999' 
TABS,ioos:station:wmo:42051:1,2005-07-04T02:30:00Z,29.6350,-93.6417,2.0,61.27706554,23.15972798,-99999.0,'11111222,11111222,99999999' 
TABS,ioos:station:wmo:42051:1,2005-07-04T03:00:00Z,29.6350,-93.6417,2.0,49.31360019,21.15291233,-99999.0,'11111222,11111222,99999999' 
TABS,ioos:station:wmo:42051:1,2005-07-04T03:30:00Z,29.6350,-93.6417,2.0,48.33754022,19.67679852,-99999.0,'11111222,11111222,99999999' 
TABS,ioos:station:wmo:42051:1,2005-07-04T04:00:00Z,29.6350,-93.6417,2.0,38.78657423,19.07667162,-99999.0,'11111222,11111222,99999999' 
TABS,ioos:station:wmo:42051:1,2005-07-04T04:30:00Z,29.6350,-93.6417,2.0,46.27072999,14.98727794,-99999.0,'11111222,11111222,99999999' 
TABS,ioos:station:wmo:42051:1,2005-07-04T05:00:00Z,29.6350,-93.6417,2.0,46.8762708,15.5505434,-99999.0,'11111222,11111222,99999999' 
TABS,ioos:station:wmo:42051:1,2005-07-04T05:30:00Z,29.6350,-93.6417,2.0,41.1346531,14.68465866,-99999.0,'11111222,11111222,99999999' 
TABS,ioos:station:wmo:42051:1,2005-07-04T06:00:00Z,29.6350,-93.6417,2.0,35.2797818,14.19746808,-99999.0,'11111222,11111222,99999999' 
TABS,ioos:station:wmo:42051:1,2005-07-04T06:30:00Z,29.6350,-93.6417,2.0,34.15002597,12.09562731,-99999.0,'11111222,11111222,99999999' 
TABS,ioos:station:wmo:42051:1,2005-07-04T07:00:00Z,29.6350,-93.6417,2.0,35.92982812,11.21350971,-99999.0,'11111222,11111222,99999999' 
TABS,ioos:station:wmo:42051:1,2005-07-04T07:30:00Z,29.6350,-93.6417,2.0,28.18751831,12.32120124,-99999.0,'11111222,11111222,99999999' 
TABS,ioos:station:wmo:42051:1,2005-07-04T08:00:00Z,29.6350,-93.6417,2.0,22.65733651,7.08692458,-99999.0,'11133222,11111222,99999999' 
TABS,ioos:station:wmo:42051:1,2005-07-04T08:30:00Z,29.6350,-93.6417,2.0,36.07744494,5.060484167,-99999.0,'11133222,11111222,99999999' 
TABS,ioos:station:wmo:42051:1,2005-07-04T09:00:00Z,29.6350,-93.6417,2.0,42.72021802,3.021737911,-99999.0,'11133222,11111222,99999999' 
TABS,ioos:station:wmo:42051:1,2005-07-04T09:30:00Z,29.6350,-93.6417,2.0,72.59073796,3.709946091,-99999.0,'11133222,11111222,99999999' 
TABS,ioos:station:wmo:42051:1,2005-07-04T10:00:00Z,29.6350,-93.6417,2.0,72.15668835,3.98151981,-99999.0,'11133222,11111222,99999999' 
TABS,ioos:station:wmo:42051:1,2005-07-04T10:30:00Z,29.6350,-93.6417,2.0,87.28177315,3.373796082,-99999.0,'11133222,11111222,99999999' 
TABS,ioos:station:wmo:42051:1,2005-07-04T11:00:00Z,29.6350,-93.6417,2.0,59.74363359,4.723430956,-99999.0,'11133222,11111222,99999999' 
TABS,ioos:station:wmo:42051:1,2005-07-04T11:30:00Z,29.6350,-93.6417,2.0,81.21975872,5.109882582,-99999.0,'11133222,11111222,99999999' 
TABS,ioos:station:wmo:42051:1,2005-07-04T12:00:00Z,29.6350,-93.6417,2.0,99.2394229,5.916764318,-99999.0,'11133222,11111222,99999999' 
TABS,ioos:station:wmo:42051:1,2005-07-04T12:30:00Z,29.6350,-93.6417,2.0,92.53934464,6.996870729,-99999.0,'11133222,11111222,99999999' 
TABS,ioos:station:wmo:42051:1,2005-07-04T13:00:00Z,29.6350,-93.6417,2.0,76.58289875,5.387030722,-99999.0,'11133222,11111222,99999999' 
TABS,ioos:station:wmo:42051:1,2005-07-04T13:30:00Z,29.6350,-93.6417,2.0,89.20976535,7.250689622,-99999.0,'11133222,11111222,99999999' 
TABS,ioos:station:wmo:42051:1,2005-07-04T14:00:00Z,29.6350,-93.6417,2.0,93.83366757,5.833052374,-99999.0,'11133222,11111222,99999999' 
TABS,ioos:station:wmo:42051:1,2005-07-04T14:30:00Z,29.6350,-93.6417,2.0,76.39638249,8.673321163,-99999.0,'11133222,11111222,99999999' 
TABS,ioos:station:wmo:42051:1,2005-07-04T15:00:00Z,29.6350,-93.6417,2.0,83.56633013,8.121145239,-99999.0,'11133222,11111222,99999999' 
TABS,ioos:station:wmo:42051:1,2005-07-04T15:30:00Z,29.6350,-93.6417,2.0,75.87273556,6.104629391,-99999.0,'11133222,11111222,99999999' 
TABS,ioos:station:wmo:42051:1,2005-07-04T16:00:00Z,29.6350,-93.6417,2.0,70.63202294,4.854739952,-99999.0,'11133222,11111222,99999999' 
TABS,ioos:station:wmo:42051:1,2005-07-04T16:30:00Z,29.6350,-93.6417,2.0,56.20415337,6.004639873,-99999.0,'11133222,11111222,99999999' 